M I D A S
Marine Information and Data Acquisition System
Tripno 973 of the Zeeleeuw from 2005-10-18 06:32:33 to 2005-10-18 12:00:50
Back to CruiseResearch ActivitiesStationsMapUnderway DataData graphs

EquipmentUnitsComments
TimeDGPSUTC
LatitudeDGPSDM.mWGS84
LongitudeDGPSDM.mWGS84
SpeedMeteo Stationm/sRelative wind speed
DirectionMeteo StationdegRelative wind direction
TemperatureMeteo Stationdeg CelciusAir temperature
PressureMeteo StationPaAtmospheric pressure
HumidityMeteo Station%Relative humidity
Missing or incorrect values are displayed as -999
Metereological data collected by the RV Zeeleeuw from 2005-10-18 06:32:07 to 2005-10-18 12:07:32
                                                                                    Next 1000 lines
Time Latitude Longitude Speed Direction Temperature Pressure Humidity
2005-10-18 06:32:17 51°13.602 2°56.094 -999 7 6 101810 86
2005-10-18 06:32:22 51°13.603 2°56.091 -999 353 6 101810 86
2005-10-18 06:32:27 51°13.604 2°56.088 -999 338 6 101810 86
2005-10-18 06:32:33 51°13.605 2°56.083 -999 5 6 101810 86
2005-10-18 06:32:37 51°13.606 2°56.079 -999 357 6 101810 86
2005-10-18 06:32:42 51°13.608 2°56.074 -999 336 6 101810 86
2005-10-18 06:32:47 51°13.609 2°56.069 -999 344 6 101810 86
2005-10-18 06:32:53 51°13.611 2°56.063 -999 348 6 101810 86
2005-10-18 06:32:58 51°13.613 2°56.057 -999 357 6 101810 86
2005-10-18 06:33:02 51°13.615 2°56.052 -999 331 6 101810 86
2005-10-18 06:33:07 51°13.617 2°56.046 -999 6 6 101810 86
2005-10-18 06:33:11 51°13.618 2°56.04 -999 24 6 101820 86
2005-10-18 06:33:17 51°13.621 2°56.032 -999 357 6 101820 86
2005-10-18 06:33:22 51°13.623 2°56.025 -999 15 6 101810 86
2005-10-18 06:33:27 51°13.625 2°56.018 -999 1 6 101810 86
2005-10-18 06:33:31 51°13.627 2°56.012 -999 343 6 101820 86
2005-10-18 06:33:37 51°13.629 2°56.003 -999 311 6 101820 86
2005-10-18 06:33:42 51°13.632 2°55.995 -999 295 6 101810 86
2005-10-18 06:33:47 51°13.634 2°55.987 -999 296 6 101810 86
2005-10-18 06:33:51 51°13.635 2°55.98 -999 291 6 101810 86
2005-10-18 06:33:57 51°13.638 2°55.97 -999 318 6 101810 86
2005-10-18 06:34:02 51°13.64 2°55.961 -999 326 6.1 101820 86
2005-10-18 06:34:08 51°13.643 2°55.951 -999 352 6.1 101820 86
2005-10-18 06:34:11 51°13.644 2°55.946 -999 343 6 101820 86
2005-10-18 06:34:17 51°13.648 2°55.935 -999 329 6 101820 86
2005-10-18 06:34:22 51°13.651 2°55.926 -999 227 6.1 101820 86
2005-10-18 06:34:27 51°13.654 2°55.917 -999 305 6.1 101820 86
2005-10-18 06:34:33 51°13.658 2°55.906 -999 295 6.1 101820 86
2005-10-18 06:34:37 51°13.661 2°55.899 -999 332 6.1 101820 86
2005-10-18 06:34:43 51°13.665 2°55.888 -999 315 6 101820 85
2005-10-18 06:34:47 51°13.667 2°55.881 -999 335 6 101820 85
2005-10-18 06:34:53 51°13.672 2°55.871 -999 353 6 101820 85
2005-10-18 06:34:57 51°13.675 2°55.864 -999 320 6 101820 85
2005-10-18 06:35:03 51°13.68 2°55.853 -999 332 6 101820 85
2005-10-18 06:35:07 51°13.683 2°55.846 -999 344 6 101820 85
2005-10-18 06:35:13 51°13.688 2°55.835 -999 342 6 101820 85
2005-10-18 06:35:17 51°13.692 2°55.828 -999 313 6 101820 85
2005-10-18 06:35:22 51°13.696 2°55.819 -999 310 6 101820 85
2005-10-18 06:35:27 51°13.701 2°55.809 -999 297 6 101820 85
2005-10-18 06:35:33 51°13.706 2°55.798 -999 274 6.1 101820 85
2005-10-18 06:35:38 51°13.711 2°55.788 -999 280 6.1 101820 85
2005-10-18 06:35:43 51°13.716 2°55.779 -999 320 6 101820 85
2005-10-18 06:35:47 51°13.719 2°55.771 -999 269 6 101820 85
2005-10-18 06:35:51 51°13.723 2°55.764 -999 256 6.1 101820 85
2005-10-18 06:35:57 51°13.73 2°55.752 -999 262 6.1 101820 85
2005-10-18 06:36:03 51°13.736 2°55.741 -999 269 6.1 101820 85
2005-10-18 06:36:07 51°13.741 2°55.734 -999 283 6.1 101820 85
2005-10-18 06:36:11 51°13.746 2°55.727 -999 296 6.1 101820 85
2005-10-18 06:36:17 51°13.753 2°55.717 -999 265 6.1 101820 85
2005-10-18 06:36:23 51°13.761 2°55.707 -999 280 6.1 101820 85
2005-10-18 06:36:27 51°13.766 2°55.701 -999 281 6.1 101820 85
2005-10-18 06:36:31 51°13.771 2°55.694 -999 247 6.1 101820 85
2005-10-18 06:36:37 51°13.779 2°55.686 -999 265 6.1 101820 85
2005-10-18 06:36:42 51°13.786 2°55.679 -999 250 6.1 101820 85
2005-10-18 06:36:47 51°13.794 2°55.672 -999 268 6.1 101820 85
2005-10-18 06:36:53 51°13.803 2°55.665 -999 293 6.1 101820 85
2005-10-18 06:36:57 51°13.809 2°55.66 -999 262 6.1 101820 85
2005-10-18 06:37:02 51°13.817 2°55.655 -999 283 6.1 101830 85
2005-10-18 06:37:07 51°13.825 2°55.65 -999 258 6.1 101830 85
2005-10-18 06:37:13 51°13.835 2°55.645 -999 253 6.1 101830 85
2005-10-18 06:37:17 51°13.841 2°55.643 -999 233 6.1 101830 85
2005-10-18 06:37:23 51°13.851 2°55.64 -999 211 6.1 101820 85
2005-10-18 06:37:27 51°13.857 2°55.638 -999 215 6.1 101820 85
2005-10-18 06:37:32 51°13.865 2°55.637 -999 232 6.1 101820 85
2005-10-18 06:37:38 51°13.875 2°55.637 -999 231 6.1 101820 85
2005-10-18 06:37:42 51°13.881 2°55.638 -999 263 6.1 101820 85
2005-10-18 06:37:47 51°13.889 2°55.64 -999 207 6.1 101820 85
2005-10-18 06:37:51 51°13.894 2°55.641 -999 233 6.1 101820 85
2005-10-18 06:37:58 51°13.905 2°55.645 -999 262 6.1 101820 85
2005-10-18 06:38:03 51°13.911 2°55.648 -999 239 6.1 101820 85
2005-10-18 06:38:07 51°13.917 2°55.651 -999 233 6.1 101820 85
2005-10-18 06:38:11 51°13.921 2°55.653 -999 235 6.2 101820 85
2005-10-18 06:38:18 51°13.929 2°55.659 -999 234 6.2 101820 85
2005-10-18 06:38:23 51°13.934 2°55.662 -999 230 6.1 101820 85
2005-10-18 06:38:27 51°13.938 2°55.665 -999 241 6.1 101820 85
2005-10-18 06:38:31 51°13.941 2°55.668 -999 253 6.2 101820 85
2005-10-18 06:38:37 51°13.946 2°55.671 -999 233 6.2 101820 85
2005-10-18 06:38:42 51°13.948 2°55.674 -999 251 6.1 101830 85
2005-10-18 06:38:47 51°13.95 2°55.675 -999 248 6.1 101830 85
2005-10-18 06:38:52 51°13.951 2°55.674 -999 223 6.2 101820 85
2005-10-18 06:38:57 51°13.951 2°55.673 -999 243 6.2 101820 85
2005-10-18 06:39:02 51°13.95 2°55.67 -999 240 6.2 101820 85
2005-10-18 06:39:07 51°13.95 2°55.665 -999 246 6.2 101820 85
2005-10-18 06:39:11 51°13.95 2°55.66 -999 222 6.2 101820 85
2005-10-18 06:39:17 51°13.951 2°55.652 -999 166 6.2 101820 85
2005-10-18 06:39:22 51°13.952 2°55.644 -999 176 6.2 101820 85
2005-10-18 06:39:27 51°13.954 2°55.635 -999 151 6.2 101820 85
2005-10-18 06:39:31 51°13.956 2°55.628 -999 133 6.2 101820 85
2005-10-18 06:39:37 51°13.961 2°55.616 -999 80 6.2 101820 85
2005-10-18 06:39:42 51°13.965 2°55.606 -999 28 6.2 101820 85
2005-10-18 06:39:47 51°13.971 2°55.596 -999 94 6.2 101820 85
2005-10-18 06:39:51 51°13.975 2°55.587 -999 111 6.2 101830 86
2005-10-18 06:39:57 51°13.983 2°55.573 -999 91 6.2 101830 86
2005-10-18 06:40:02 51°13.989 2°55.561 -999 118 6.3 101820 86
2005-10-18 06:40:07 51°13.997 2°55.55 -999 119 6.3 101820 86
2005-10-18 06:40:11 51°14.003 2°55.54 -999 111 6.3 101820 86
2005-10-18 06:40:18 51°14.015 2°55.525 -999 111 6.3 101820 86
2005-10-18 06:40:22 51°14.022 2°55.516 -999 96 6.3 101820 86
2005-10-18 06:40:27 51°14.032 2°55.506 -999 93 6.3 101820 86
2005-10-18 06:40:32 51°14.042 2°55.496 -999 82 6.3 101820 86
2005-10-18 06:40:37 51°14.052 2°55.485 -999 107 6.3 101820 86
2005-10-18 06:40:42 51°14.063 2°55.475 -999 85 6.3 101820 86
2005-10-18 06:40:47 51°14.075 2°55.464 -999 97 6.3 101820 86
2005-10-18 06:40:53 51°14.088 2°55.452 -999 61 6.3 101820 85
2005-10-18 06:40:57 51°14.098 2°55.443 -999 70 6.3 101820 85
2005-10-18 06:41:03 51°14.112 2°55.43 -999 52 6.3 101820 85
2005-10-18 06:41:07 51°14.122 2°55.422 -999 44 6.3 101820 85
2005-10-18 06:41:11 51°14.132 2°55.413 -999 62 6.3 101820 85
2005-10-18 06:41:17 51°14.147 2°55.4 -999 68 6.3 101820 85
2005-10-18 06:41:23 51°14.162 2°55.386 -999 79 6.3 101820 85
2005-10-18 06:41:27 51°14.172 2°55.376 -999 98 6.3 101820 85
2005-10-18 06:41:33 51°14.186 2°55.361 -999 79 6.4 101820 85
2005-10-18 06:41:37 51°14.196 2°55.35 -999 69 6.4 101820 85
2005-10-18 06:41:42 51°14.208 2°55.337 -999 57 6.3 101820 85
2005-10-18 06:41:47 51°14.219 2°55.322 -999 92 6.3 101820 85
2005-10-18 06:41:51 51°14.228 2°55.31 -999 61 6.3 101820 85
2005-10-18 06:41:57 51°14.241 2°55.29 -999 59 6.3 101820 85
2005-10-18 06:42:03 51°14.253 2°55.27 -999 56 6.3 101820 85
2005-10-18 06:42:07 51°14.261 2°55.256 -999 78 6.3 101820 85
2005-10-18 06:42:11 51°14.268 2°55.242 -999 115 6.3 101820 85
2005-10-18 06:42:18 51°14.282 2°55.217 -999 120 6.3 101820 85
2005-10-18 06:42:22 51°14.289 2°55.202 -999 88 6.3 101820 85
2005-10-18 06:42:27 51°14.299 2°55.184 -999 34 6.3 101820 85
2005-10-18 06:42:32 51°14.308 2°55.165 -999 40 6.3 101820 85
2005-10-18 06:42:37 51°14.318 2°55.146 -999 48 6.3 101820 85
2005-10-18 06:42:42 51°14.327 2°55.127 -999 90 6.3 101820 84
2005-10-18 06:42:47 51°14.336 2°55.108 -999 69 6.3 101820 84
2005-10-18 06:42:51 51°14.344 2°55.093 -999 56 6.3 101820 84
2005-10-18 06:42:57 51°14.356 2°55.069 -999 57 6.3 101820 84
2005-10-18 06:43:02 51°14.366 2°55.05 -999 39 6.3 101820 84
2005-10-18 06:43:07 51°14.377 2°55.03 -999 76 6.3 101820 84
2005-10-18 06:43:12 51°14.388 2°55.01 -999 53 6.3 101820 84
2005-10-18 06:43:17 51°14.4 2°54.991 -999 39 6.3 101820 84
2005-10-18 06:43:22 51°14.413 2°54.973 -999 49 6.3 101820 84
2005-10-18 06:43:27 51°14.426 2°54.955 -999 70 6.3 101820 84
2005-10-18 06:43:31 51°14.436 2°54.94 -999 83 6.3 101820 85
2005-10-18 06:43:37 51°14.453 2°54.918 -999 72 6.3 101820 85
2005-10-18 06:43:42 51°14.466 2°54.9 -999 65 6.3 101820 85
2005-10-18 06:43:47 51°14.481 2°54.884 -999 69 6.3 101820 85
2005-10-18 06:43:51 51°14.492 2°54.871 -999 67 6.4 101820 85
2005-10-18 06:43:57 51°14.51 2°54.855 -999 65 6.4 101820 85
2005-10-18 06:44:02 51°14.526 2°54.842 -999 58 6.3 101820 85
2005-10-18 06:44:07 51°14.541 2°54.83 -999 65 6.3 101820 85
2005-10-18 06:44:11 51°14.554 2°54.821 -999 67 6.3 101820 85
2005-10-18 06:44:17 51°14.573 2°54.807 -999 71 6.3 101820 85
2005-10-18 06:44:22 51°14.588 2°54.795 -999 71 6.4 101810 85
2005-10-18 06:44:27 51°14.604 2°54.784 -999 74 6.4 101810 85
2005-10-18 06:44:31 51°14.617 2°54.775 -999 61 6.4 101810 85
2005-10-18 06:44:37 51°14.636 2°54.761 -999 71 6.4 101810 85
2005-10-18 06:44:42 51°14.652 2°54.75 -999 79 6.4 101810 85
2005-10-18 06:44:47 51°14.667 2°54.739 -999 76 6.4 101810 85
2005-10-18 06:44:52 51°14.684 2°54.729 -999 78 6.4 101810 85
2005-10-18 06:44:57 51°14.7 2°54.718 -999 71 6.4 101810 85
2005-10-18 06:45:02 51°14.715 2°54.706 -999 77 6.4 101810 85
2005-10-18 06:45:07 51°14.731 2°54.694 -999 70 6.4 101810 85
2005-10-18 06:45:11 51°14.743 2°54.684 -999 78 6.4 101810 85
2005-10-18 06:45:17 51°14.761 2°54.668 -999 73 6.4 101810 85
2005-10-18 06:45:22 51°14.776 2°54.653 -999 72 6.4 101810 85
2005-10-18 06:45:27 51°14.791 2°54.639 -999 72 6.4 101810 85
2005-10-18 06:45:31 51°14.803 2°54.627 -999 93 6.5 101820 85
2005-10-18 06:45:37 51°14.82 2°54.609 -999 78 6.5 101820 85
2005-10-18 06:45:42 51°14.835 2°54.593 -999 82 6.5 101810 85
2005-10-18 06:45:47 51°14.849 2°54.578 -999 91 6.5 101810 85
2005-10-18 06:45:52 51°14.863 2°54.561 -999 88 6.5 101820 85
2005-10-18 06:45:57 51°14.877 2°54.546 -999 88 6.5 101820 85
2005-10-18 06:46:02 51°14.891 2°54.531 -999 84 6.5 101820 85
2005-10-18 06:46:07 51°14.906 2°54.516 -999 87 6.5 101820 85
2005-10-18 06:46:11 51°14.918 2°54.504 -999 82 6.6 101820 84
2005-10-18 06:46:17 51°14.936 2°54.489 -999 83 6.6 101820 84
2005-10-18 06:46:22 51°14.951 2°54.478 -999 92 6.6 101820 84
2005-10-18 06:46:27 51°14.967 2°54.468 -999 86 6.6 101820 84
2005-10-18 06:46:32 51°14.983 2°54.459 -999 85 6.6 101820 84
2005-10-18 06:46:37 51°14.999 2°54.45 -999 77 6.6 101820 84
2005-10-18 06:46:42 51°15.014 2°54.442 -999 65 6.7 101820 85
2005-10-18 06:46:47 51°15.03 2°54.433 -999 82 6.7 101820 85
2005-10-18 06:46:52 51°15.045 2°54.424 -999 75 6.7 101820 85
2005-10-18 06:46:57 51°15.06 2°54.414 -999 81 6.7 101820 85
2005-10-18 06:47:02 51°15.075 2°54.404 -999 75 6.7 101820 85
2005-10-18 06:47:07 51°15.09 2°54.394 -999 89 6.7 101820 85
2005-10-18 06:47:12 51°15.105 2°54.383 -999 97 6.8 101820 86
2005-10-18 06:47:17 51°15.12 2°54.372 -999 92 6.8 101820 86
2005-10-18 06:47:22 51°15.135 2°54.36 -999 93 6.8 101820 85
2005-10-18 06:47:27 51°15.149 2°54.348 -999 88 6.8 101820 85
2005-10-18 06:47:32 51°15.164 2°54.336 -999 83 6.8 101820 86
2005-10-18 06:47:37 51°15.179 2°54.324 -999 90 6.8 101820 86
2005-10-18 06:47:42 51°15.193 2°54.312 -999 91 6.9 101820 86
2005-10-18 06:47:47 51°15.208 2°54.3 -999 88 6.9 101820 86
2005-10-18 06:47:51 51°15.22 2°54.291 -999 89 6.9 101820 85
2005-10-18 06:47:57 51°15.239 2°54.278 -999 88 6.9 101820 85
2005-10-18 06:48:02 51°15.254 2°54.267 -999 89 6.9 101820 85
2005-10-18 06:48:07 51°15.27 2°54.257 -999 90 6.9 101820 85
2005-10-18 06:48:11 51°15.282 2°54.249 -999 90 6.9 101820 84
2005-10-18 06:48:17 51°15.301 2°54.236 -999 86 6.9 101820 84
2005-10-18 06:48:22 51°15.316 2°54.225 -999 85 6.9 101820 84
2005-10-18 06:48:27 51°15.332 2°54.213 -999 84 6.9 101820 84
2005-10-18 06:48:31 51°15.344 2°54.203 -999 80 6.9 101820 84
2005-10-18 06:48:37 51°15.362 2°54.187 -999 83 6.9 101820 84
2005-10-18 06:48:42 51°15.377 2°54.173 -999 89 7 101820 85
2005-10-18 06:48:47 51°15.392 2°54.157 -999 88 7 101820 85
2005-10-18 06:48:52 51°15.406 2°54.141 -999 92 7 101820 85
2005-10-18 06:48:57 51°15.42 2°54.124 -999 96 7 101820 85
2005-10-18 06:49:02 51°15.434 2°54.106 -999 98 7 101820 84
2005-10-18 06:49:07 51°15.448 2°54.089 -999 103 7 101820 84
2005-10-18 06:49:11 51°15.46 2°54.075 -999 95 7 101820 84
2005-10-18 06:49:17 51°15.477 2°54.054 -999 104 7 101820 84
2005-10-18 06:49:22 51°15.492 2°54.038 -999 82 7.1 101830 84
2005-10-18 06:49:27 51°15.507 2°54.024 -999 74 7.1 101830 84
2005-10-18 06:49:32 51°15.523 2°54.01 -999 79 7 101830 84
2005-10-18 06:49:37 51°15.538 2°53.997 -999 82 7 101830 84
2005-10-18 06:49:42 51°15.554 2°53.984 -999 79 7.1 101830 84
2005-10-18 06:49:47 51°15.57 2°53.972 -999 80 7.1 101830 84
2005-10-18 06:49:52 51°15.586 2°53.959 -999 73 7.2 101830 85
2005-10-18 06:49:57 51°15.602 2°53.946 -999 85 7.2 101830 85
2005-10-18 06:50:02 51°15.618 2°53.934 -999 92 7.2 101820 84
2005-10-18 06:50:07 51°15.633 2°53.92 -999 87 7.2 101820 84
2005-10-18 06:50:11 51°15.646 2°53.909 -999 83 7.2 101820 83
2005-10-18 06:50:17 51°15.665 2°53.893 -999 81 7.2 101820 83
2005-10-18 06:50:22 51°15.681 2°53.88 -999 80 7.2 101820 84
2005-10-18 06:50:27 51°15.697 2°53.867 -999 97 7.2 101820 84
2005-10-18 06:50:31 51°15.709 2°53.856 -999 87 7.2 101820 83
2005-10-18 06:50:37 51°15.728 2°53.84 -999 77 7.2 101820 83
2005-10-18 06:50:42 51°15.744 2°53.827 -999 77 7.3 101830 83
2005-10-18 06:50:47 51°15.76 2°53.814 -999 92 7.3 101830 83
2005-10-18 06:50:51 51°15.773 2°53.804 -999 89 7.3 101820 83
2005-10-18 06:50:57 51°15.792 2°53.787 -999 87 7.3 101820 83
2005-10-18 06:51:02 51°15.807 2°53.775 -999 87 7.3 101830 83
2005-10-18 06:51:07 51°15.823 2°53.761 -999 91 7.3 101830 83
2005-10-18 06:51:12 51°15.839 2°53.747 -999 85 7.3 101830 83
2005-10-18 06:51:17 51°15.854 2°53.734 -999 95 7.3 101830 83
2005-10-18 06:51:22 51°15.87 2°53.721 -999 95 7.3 101830 83
2005-10-18 06:51:27 51°15.886 2°53.708 -999 92 7.3 101830 83
2005-10-18 06:51:31 51°15.898 2°53.698 -999 81 7.4 101820 83
2005-10-18 06:51:37 51°15.917 2°53.682 -999 89 7.4 101820 83
2005-10-18 06:51:42 51°15.933 2°53.67 -999 82 7.3 101830 82
2005-10-18 06:51:47 51°15.948 2°53.657 -999 85 7.3 101830 82
2005-10-18 06:51:51 51°15.961 2°53.647 -999 83 7.4 101830 82
2005-10-18 06:51:57 51°15.98 2°53.631 -999 84 7.4 101830 82
2005-10-18 06:52:02 51°15.996 2°53.618 -999 97 7.4 101830 82
2005-10-18 06:52:07 51°16.011 2°53.605 -999 90 7.4 101830 82
2005-10-18 06:52:11 51°16.024 2°53.595 -999 97 7.4 101830 82
2005-10-18 06:52:17 51°16.043 2°53.579 -999 82 7.4 101830 82
2005-10-18 06:52:22 51°16.058 2°53.565 -999 84 7.5 101830 82
2005-10-18 06:52:27 51°16.074 2°53.552 -999 86 7.5 101830 82
2005-10-18 06:52:31 51°16.086 2°53.541 -999 88 7.5 101830 81
2005-10-18 06:52:37 51°16.105 2°53.525 -999 89 7.5 101830 81
2005-10-18 06:52:42 51°16.121 2°53.511 -999 95 7.5 101830 82
2005-10-18 06:52:47 51°16.136 2°53.498 -999 84 7.5 101830 82
2005-10-18 06:52:51 51°16.148 2°53.487 -999 85 7.5 101830 82
2005-10-18 06:52:57 51°16.167 2°53.471 -999 89 7.5 101830 82
2005-10-18 06:53:02 51°16.183 2°53.458 -999 87 7.5 101830 82
2005-10-18 06:53:07 51°16.198 2°53.445 -999 93 7.5 101830 82
2005-10-18 06:53:12 51°16.214 2°53.431 -999 100 7.6 101830 82
2005-10-18 06:53:17 51°16.229 2°53.418 -999 93 7.6 101830 82
2005-10-18 06:53:22 51°16.244 2°53.404 -999 108 7.6 101830 82
2005-10-18 06:53:27 51°16.26 2°53.39 -999 96 7.6 101830 82
2005-10-18 06:53:31 51°16.272 2°53.379 -999 92 7.6 101830 82
2005-10-18 06:53:37 51°16.29 2°53.362 -999 90 7.6 101830 82
2005-10-18 06:53:42 51°16.306 2°53.349 -999 90 7.6 101830 82
2005-10-18 06:53:47 51°16.321 2°53.335 -999 93 7.6 101830 82
2005-10-18 06:53:51 51°16.334 2°53.325 -999 101 7.6 101830 82
2005-10-18 06:53:57 51°16.352 2°53.309 -999 92 7.6 101830 82
2005-10-18 06:54:02 51°16.368 2°53.296 -999 99 7.6 101830 82
2005-10-18 06:54:07 51°16.384 2°53.283 -999 95 7.6 101830 82
2005-10-18 06:54:11 51°16.396 2°53.273 -999 90 7.6 101830 81
2005-10-18 06:54:17 51°16.415 2°53.258 -999 95 7.6 101830 81
2005-10-18 06:54:22 51°16.431 2°53.245 -999 95 7.6 101830 81
2005-10-18 06:54:27 51°16.446 2°53.233 -999 84 7.6 101830 81
2005-10-18 06:54:31 51°16.459 2°53.222 -999 92 7.7 101830 81
2005-10-18 06:54:37 51°16.478 2°53.208 -999 96 7.7 101830 81
2005-10-18 06:54:42 51°16.493 2°53.196 -999 94 7.7 101830 82
2005-10-18 06:54:47 51°16.509 2°53.184 -999 94 7.7 101830 82
2005-10-18 06:54:51 51°16.522 2°53.174 -999 100 7.8 101830 82
2005-10-18 06:54:57 51°16.541 2°53.159 -999 90 7.8 101830 82
2005-10-18 06:55:02 51°16.556 2°53.147 -999 91 7.7 101830 82
2005-10-18 06:55:07 51°16.572 2°53.135 -999 98 7.7 101830 82
2005-10-18 06:55:11 51°16.585 2°53.125 -999 89 7.7 101820 82
2005-10-18 06:55:17 51°16.604 2°53.111 -999 94 7.7 101820 82
2005-10-18 06:55:22 51°16.62 2°53.099 -999 92 7.8 101830 81
2005-10-18 06:55:27 51°16.635 2°53.087 -999 99 7.8 101830 81
2005-10-18 06:55:32 51°16.651 2°53.076 -999 97 7.8 101820 82
2005-10-18 06:55:37 51°16.667 2°53.064 -999 100 7.8 101820 82
2005-10-18 06:55:42 51°16.683 2°53.052 -999 93 7.8 101820 82
2005-10-18 06:55:47 51°16.698 2°53.041 -999 106 7.8 101820 82
2005-10-18 06:55:52 51°16.714 2°53.029 -999 103 7.8 101830 82
2005-10-18 06:55:57 51°16.73 2°53.018 -999 100 7.8 101830 82
2005-10-18 06:56:02 51°16.746 2°53.006 -999 90 7.8 101830 81
2005-10-18 06:56:07 51°16.761 2°52.995 -999 97 7.8 101830 81
2005-10-18 06:56:12 51°16.777 2°52.984 -999 98 7.8 101830 81
2005-10-18 06:56:17 51°16.793 2°52.973 -999 98 7.8 101830 81
2005-10-18 06:56:22 51°16.808 2°52.961 -999 100 7.8 101830 81
2005-10-18 06:56:27 51°16.824 2°52.95 -999 105 7.8 101830 81
2005-10-18 06:56:32 51°16.839 2°52.938 -999 106 7.9 101830 81
2005-10-18 06:56:37 51°16.853 2°52.927 -999 98 7.9 101830 81
2005-10-18 06:56:42 51°16.867 2°52.914 -999 100 7.9 101820 81
2005-10-18 06:56:47 51°16.881 2°52.902 -999 112 7.9 101820 81
2005-10-18 06:56:51 51°16.893 2°52.892 -999 105 7.8 101830 81
2005-10-18 06:56:57 51°16.909 2°52.875 -999 107 7.8 101830 81
2005-10-18 06:57:02 51°16.923 2°52.86 -999 111 7.9 101830 81
2005-10-18 06:57:07 51°16.937 2°52.845 -999 120 7.9 101830 81
2005-10-18 06:57:12 51°16.951 2°52.83 -999 120 7.9 101830 81
2005-10-18 06:57:17 51°16.965 2°52.815 -999 113 7.9 101830 81
2005-10-18 06:57:22 51°16.98 2°52.801 -999 104 7.8 101830 79
2005-10-18 06:57:27 51°16.994 2°52.788 -999 107 7.8 101830 79
2005-10-18 06:57:32 51°17.009 2°52.775 -999 102 7.8 101830 79
2005-10-18 06:57:37 51°17.024 2°52.762 -999 96 7.8 101830 79
2005-10-18 06:57:42 51°17.04 2°52.75 -999 101 7.8 101830 79
2005-10-18 06:57:47 51°17.055 2°52.738 -999 103 7.8 101830 79
2005-10-18 06:57:51 51°17.068 2°52.729 -999 95 7.9 101830 80
2005-10-18 06:57:57 51°17.087 2°52.714 -999 111 7.9 101830 80
2005-10-18 06:58:02 51°17.102 2°52.701 -999 112 7.9 101830 80
2005-10-18 06:58:07 51°17.117 2°52.689 -999 108 7.9 101830 80
2005-10-18 06:58:12 51°17.132 2°52.675 -999 107 7.9 101830 80
2005-10-18 06:58:17 51°17.147 2°52.662 -999 112 7.9 101830 80
2005-10-18 06:58:22 51°17.162 2°52.648 -999 107 7.9 101830 79
2005-10-18 06:58:27 51°17.177 2°52.635 -999 102 7.9 101830 79
2005-10-18 06:58:31 51°17.188 2°52.624 -999 100 7.9 101830 78
2005-10-18 06:58:37 51°17.207 2°52.609 -999 110 7.9 101830 78
2005-10-18 06:58:42 51°17.222 2°52.596 -999 112 8 101830 79
2005-10-18 06:58:47 51°17.237 2°52.584 -999 105 8 101830 79
2005-10-18 06:58:52 51°17.252 2°52.571 -999 105 8 101830 80
2005-10-18 06:58:57 51°17.268 2°52.559 -999 106 8 101830 80
2005-10-18 06:59:02 51°17.283 2°52.545 -999 111 8 101830 79
2005-10-18 06:59:07 51°17.298 2°52.532 -999 106 8 101830 79
2005-10-18 06:59:11 51°17.31 2°52.521 -999 113 8 101830 79
2005-10-18 06:59:17 51°17.328 2°52.505 -999 104 8 101830 79
2005-10-18 06:59:22 51°17.343 2°52.492 -999 110 8 101830 79
2005-10-18 06:59:27 51°17.358 2°52.478 -999 112 8 101830 79
2005-10-18 06:59:32 51°17.374 2°52.465 -999 117 8 101830 78
2005-10-18 06:59:37 51°17.389 2°52.451 -999 116 8 101830 78
2005-10-18 06:59:42 51°17.404 2°52.438 -999 110 8 101840 79
2005-10-18 06:59:47 51°17.419 2°52.424 -999 96 8 101840 79
2005-10-18 06:59:51 51°17.431 2°52.413 -999 103 8.1 101830 80
2005-10-18 06:59:57 51°17.449 2°52.397 -999 109 8.1 101830 80
2005-10-18 07:00:02 51°17.464 2°52.384 -999 113 8.1 101840 80
2005-10-18 07:00:07 51°17.479 2°52.37 -999 98 8.1 101840 80
2005-10-18 07:00:11 51°17.491 2°52.36 -999 103 8.1 101830 80
2005-10-18 07:00:17 51°17.509 2°52.344 -999 108 8.1 101830 80
2005-10-18 07:00:22 51°17.524 2°52.33 -999 111 8.1 101830 80
2005-10-18 07:00:27 51°17.539 2°52.317 -999 102 8.1 101830 80
2005-10-18 07:00:31 51°17.551 2°52.306 -999 105 8.1 101840 79
2005-10-18 07:00:37 51°17.569 2°52.29 -999 109 8.1 101840 79
2005-10-18 07:00:42 51°17.584 2°52.276 -999 104 8.1 101830 80
2005-10-18 07:00:47 51°17.599 2°52.262 -999 94 8.1 101830 80
2005-10-18 07:00:52 51°17.614 2°52.248 -999 99 8.1 101840 79
2005-10-18 07:00:57 51°17.629 2°52.235 -999 98 8.1 101840 79
2005-10-18 07:01:02 51°17.644 2°52.221 -999 87 8.2 101840 79
2005-10-18 07:01:07 51°17.659 2°52.207 -999 102 8.2 101840 79
2005-10-18 07:01:11 51°17.671 2°52.196 -999 105 8.2 101840 79
2005-10-18 07:01:17 51°17.689 2°52.18 -999 107 8.2 101840 79
2005-10-18 07:01:22 51°17.703 2°52.166 -999 111 8.3 101840 80
2005-10-18 07:01:27 51°17.718 2°52.153 -999 117 8.3 101840 80
2005-10-18 07:01:32 51°17.733 2°52.138 -999 119 8.2 101840 79
2005-10-18 07:01:37 51°17.748 2°52.125 -999 113 8.2 101840 79
2005-10-18 07:01:42 51°17.763 2°52.111 -999 114 8.2 101840 79
2005-10-18 07:01:47 51°17.778 2°52.098 -999 103 8.2 101840 79
2005-10-18 07:01:51 51°17.79 2°52.087 -999 115 8.2 101830 78
2005-10-18 07:01:57 51°17.808 2°52.071 -999 104 8.2 101830 78
2005-10-18 07:02:02 51°17.823 2°52.057 -999 105 8.3 101840 77
2005-10-18 07:02:07 51°17.838 2°52.044 -999 103 8.3 101840 77
2005-10-18 07:02:11 51°17.85 2°52.033 -999 103 8.3 101840 78
2005-10-18 07:02:17 51°17.868 2°52.017 -999 97 8.3 101840 78
2005-10-18 07:02:22 51°17.883 2°52.003 -999 111 8.3 101840 79
2005-10-18 07:02:27 51°17.898 2°51.99 -999 126 8.3 101840 79
2005-10-18 07:02:31 51°17.91 2°51.979 -999 100 8.4 101840 79
2005-10-18 07:02:37 51°17.928 2°51.962 -999 112 8.4 101840 79
2005-10-18 07:02:42 51°17.943 2°51.948 -999 115 8.4 101840 79
2005-10-18 07:02:47 51°17.958 2°51.934 -999 100 8.4 101840 79
2005-10-18 07:02:52 51°17.973 2°51.921 -999 98 8.4 101840 79
2005-10-18 07:02:57 51°17.988 2°51.907 -999 105 8.4 101840 79
2005-10-18 07:03:02 51°18.003 2°51.893 -999 94 8.3 101840 78
2005-10-18 07:03:07 51°18.018 2°51.879 -999 108 8.3 101840 78
2005-10-18 07:03:11 51°18.03 2°51.868 -999 114 8.4 101840 78
2005-10-18 07:03:17 51°18.048 2°51.851 -999 97 8.4 101840 78
2005-10-18 07:03:22 51°18.063 2°51.837 -999 110 8.3 101840 78
2005-10-18 07:03:27 51°18.078 2°51.824 -999 106 8.3 101840 78
2005-10-18 07:03:32 51°18.094 2°51.81 -999 102 8.4 101840 78
2005-10-18 07:03:37 51°18.109 2°51.796 -999 106 8.4 101840 78
2005-10-18 07:03:42 51°18.124 2°51.783 -999 95 8.4 101840 77
2005-10-18 07:03:47 51°18.139 2°51.769 -999 95 8.4 101840 77
2005-10-18 07:03:51 51°18.151 2°51.759 -999 106 8.4 101840 78
2005-10-18 07:03:57 51°18.169 2°51.742 -999 109 8.4 101840 78
2005-10-18 07:04:02 51°18.184 2°51.728 -999 116 8.4 101840 78
2005-10-18 07:04:07 51°18.199 2°51.714 -999 112 8.4 101840 78
2005-10-18 07:04:12 51°18.214 2°51.7 -999 108 8.4 101840 79
2005-10-18 07:04:17 51°18.229 2°51.687 -999 108 8.4 101840 79
2005-10-18 07:04:22 51°18.244 2°51.673 -999 90 8.4 101840 78
2005-10-18 07:04:27 51°18.26 2°51.659 -999 97 8.4 101840 78
2005-10-18 07:04:32 51°18.275 2°51.645 -999 103 8.4 101850 78
2005-10-18 07:04:37 51°18.29 2°51.631 -999 111 8.4 101850 78
2005-10-18 07:04:42 51°18.305 2°51.617 -999 108 8.5 101850 79
2005-10-18 07:04:47 51°18.32 2°51.603 -999 107 8.5 101850 79
2005-10-18 07:04:52 51°18.335 2°51.588 -999 94 8.6 101840 80
2005-10-18 07:04:57 51°18.35 2°51.574 -999 104 8.6 101840 80
2005-10-18 07:05:02 51°18.365 2°51.56 -999 106 8.5 101850 80
2005-10-18 07:05:07 51°18.38 2°51.546 -999 107 8.5 101850 80
2005-10-18 07:05:12 51°18.396 2°51.532 -999 103 8.6 101850 79
2005-10-18 07:05:17 51°18.411 2°51.518 -999 114 8.6 101850 79
2005-10-18 07:05:22 51°18.426 2°51.504 -999 103 8.6 101840 80
2005-10-18 07:05:27 51°18.441 2°51.49 -999 116 8.6 101840 80
2005-10-18 07:05:32 51°18.456 2°51.476 -999 106 8.6 101840 79
2005-10-18 07:05:37 51°18.471 2°51.462 -999 109 8.6 101840 79
2005-10-18 07:05:42 51°18.486 2°51.448 -999 107 8.6 101850 78
2005-10-18 07:05:47 51°18.501 2°51.434 -999 111 8.6 101850 78
2005-10-18 07:05:52 51°18.516 2°51.42 -999 108 8.6 101850 78
2005-10-18 07:05:57 51°18.531 2°51.406 -999 102 8.6 101850 78
2005-10-18 07:06:02 51°18.546 2°51.391 -999 99 8.6 101840 79
2005-10-18 07:06:07 51°18.561 2°51.377 -999 107 8.6 101840 79
2005-10-18 07:06:12 51°18.576 2°51.362 -999 110 8.6 101850 79
2005-10-18 07:06:17 51°18.591 2°51.348 -999 106 8.6 101850 79
2005-10-18 07:06:22 51°18.606 2°51.334 -999 106 8.7 101840 80
2005-10-18 07:06:27 51°18.622 2°51.32 -999 104 8.7 101840 80
2005-10-18 07:06:32 51°18.637 2°51.306 -999 103 8.6 101850 79
2005-10-18 07:06:37 51°18.652 2°51.292 -999 108 8.6 101850 79
2005-10-18 07:06:42 51°18.667 2°51.278 -999 106 8.6 101840 78
2005-10-18 07:06:47 51°18.682 2°51.264 -999 109 8.6 101840 78
2005-10-18 07:06:52 51°18.698 2°51.249 -999 109 8.6 101850 77
2005-10-18 07:06:57 51°18.713 2°51.236 -999 95 8.6 101850 77
2005-10-18 07:07:02 51°18.728 2°51.222 -999 96 8.6 101840 76
2005-10-18 07:07:07 51°18.744 2°51.21 -999 98 8.6 101840 76
2005-10-18 07:07:12 51°18.759 2°51.196 -999 101 8.6 101850 77
2005-10-18 07:07:17 51°18.774 2°51.183 -999 101 8.6 101850 77
2005-10-18 07:07:22 51°18.79 2°51.17 -999 101 8.7 101850 78
2005-10-18 07:07:27 51°18.805 2°51.157 -999 96 8.7 101850 78
2005-10-18 07:07:32 51°18.821 2°51.144 -999 106 8.7 101850 78
2005-10-18 07:07:37 51°18.836 2°51.131 -999 103 8.7 101850 78
2005-10-18 07:07:42 51°18.852 2°51.118 -999 102 8.7 101840 78
2005-10-18 07:07:47 51°18.867 2°51.106 -999 109 8.7 101840 78
2005-10-18 07:07:51 51°18.88 2°51.096 -999 111 8.7 101850 78
2005-10-18 07:07:57 51°18.898 2°51.081 -999 117 8.7 101850 78
2005-10-18 07:08:02 51°18.913 2°51.068 -999 125 8.7 101840 78
2005-10-18 07:08:07 51°18.929 2°51.055 -999 99 8.7 101840 78
2005-10-18 07:08:11 51°18.941 2°51.046 -999 93 8.7 101850 79
2005-10-18 07:08:17 51°18.96 2°51.03 -999 103 8.7 101850 79
2005-10-18 07:08:22 51°18.975 2°51.018 -999 107 8.7 101840 77
2005-10-18 07:08:27 51°18.99 2°51.006 -999 105 8.7 101840 77
2005-10-18 07:08:31 51°19.002 2°50.996 -999 107 8.7 101840 78
2005-10-18 07:08:37 51°19.021 2°50.981 -999 96 8.7 101840 78
2005-10-18 07:08:42 51°19.037 2°50.968 -999 99 8.7 101850 78
2005-10-18 07:08:47 51°19.052 2°50.956 -999 97 8.7 101850 78
2005-10-18 07:08:52 51°19.067 2°50.943 -999 102 8.8 101840 78
2005-10-18 07:08:57 51°19.083 2°50.93 -999 105 8.8 101840 78
2005-10-18 07:09:02 51°19.098 2°50.917 -999 106 8.8 101850 79
2005-10-18 07:09:07 51°19.114 2°50.906 -999 100 8.8 101850 79
2005-10-18 07:09:11 51°19.126 2°50.895 -999 107 8.8 101830 79
2005-10-18 07:09:17 51°19.145 2°50.881 -999 98 8.8 101830 79
2005-10-18 07:09:22 51°19.16 2°50.868 -999 96 8.8 101830 78
2005-10-18 07:09:27 51°19.175 2°50.856 -999 107 8.8 101830 78
2005-10-18 07:09:31 51°19.188 2°50.846 -999 107 8.8 101840 78
2005-10-18 07:09:37 51°19.206 2°50.83 -999 108 8.8 101840 78
2005-10-18 07:09:42 51°19.221 2°50.817 -999 102 8.8 101840 78
2005-10-18 07:09:47 51°19.236 2°50.805 -999 113 8.8 101840 78
2005-10-18 07:09:51 51°19.248 2°50.795 -999 103 8.8 101830 77
2005-10-18 07:09:57 51°19.267 2°50.78 -999 101 8.8 101830 77
2005-10-18 07:10:02 51°19.283 2°50.767 -999 100 8.8 101830 77
2005-10-18 07:10:07 51°19.298 2°50.755 -999 108 8.8 101830 77
2005-10-18 07:10:11 51°19.31 2°50.745 -999 103 8.8 101830 76
2005-10-18 07:10:17 51°19.329 2°50.73 -999 103 8.8 101830 76
2005-10-18 07:10:22 51°19.344 2°50.718 -999 107 8.9 101830 77
2005-10-18 07:10:27 51°19.36 2°50.705 -999 111 8.9 101830 77
2005-10-18 07:10:31 51°19.372 2°50.695 -999 110 8.8 101830 77
2005-10-18 07:10:37 51°19.39 2°50.681 -999 120 8.8 101830 77
2005-10-18 07:10:42 51°19.406 2°50.668 -999 109 8.8 101840 76
2005-10-18 07:10:47 51°19.421 2°50.656 -999 101 8.8 101840 76
2005-10-18 07:10:51 51°19.433 2°50.646 -999 103 8.8 101830 76
2005-10-18 07:10:57 51°19.452 2°50.631 -999 116 8.8 101830 76
2005-10-18 07:11:02 51°19.467 2°50.619 -999 110 8.8 101830 76
2005-10-18 07:11:07 51°19.483 2°50.607 -999 107 8.8 101830 76
2005-10-18 07:11:11 51°19.495 2°50.597 -999 114 8.9 101840 77
2005-10-18 07:11:17 51°19.514 2°50.583 -999 97 8.9 101840 77
2005-10-18 07:11:22 51°19.53 2°50.57 -999 107 8.9 101830 77
2005-10-18 07:11:27 51°19.546 2°50.558 -999 104 8.9 101830 77
2005-10-18 07:11:31 51°19.558 2°50.549 -999 92 8.9 101830 77
2005-10-18 07:11:37 51°19.577 2°50.534 -999 102 8.9 101830 77
2005-10-18 07:11:42 51°19.593 2°50.523 -999 106 8.9 101840 78
2005-10-18 07:11:47 51°19.608 2°50.51 -999 99 8.9 101840 78
2005-10-18 07:11:52 51°19.624 2°50.498 -999 100 8.9 101830 78
2005-10-18 07:11:57 51°19.64 2°50.486 -999 106 8.9 101830 78
2005-10-18 07:12:02 51°19.656 2°50.473 -999 103 9 101840 78
2005-10-18 07:12:07 51°19.671 2°50.461 -999 110 9 101840 78
2005-10-18 07:12:11 51°19.684 2°50.45 -999 111 9 101830 78
2005-10-18 07:12:17 51°19.703 2°50.436 -999 106 9 101830 78
2005-10-18 07:12:22 51°19.719 2°50.422 -999 104 9 101830 77
2005-10-18 07:12:27 51°19.735 2°50.411 -999 116 9 101830 77
2005-10-18 07:12:31 51°19.747 2°50.4 -999 111 9 101820 76
2005-10-18 07:12:37 51°19.766 2°50.386 -999 103 9 101820 76
2005-10-18 07:12:42 51°19.782 2°50.374 -999 96 9 101830 77
2005-10-18 07:12:47 51°19.798 2°50.361 -999 98 9 101830 77
2005-10-18 07:12:52 51°19.814 2°50.349 -999 101 9 101830 77
2005-10-18 07:12:57 51°19.83 2°50.337 -999 100 9 101830 77
2005-10-18 07:13:02 51°19.845 2°50.324 -999 105 9 101830 77
2005-10-18 07:13:07 51°19.861 2°50.312 -999 103 9 101830 77
2005-10-18 07:13:11 51°19.874 2°50.302 -999 107 9 101830 78
2005-10-18 07:13:17 51°19.893 2°50.287 -999 100 9 101830 78
2005-10-18 07:13:22 51°19.908 2°50.275 -999 106 9 101830 78
2005-10-18 07:13:27 51°19.924 2°50.262 -999 111 9 101830 78
2005-10-18 07:13:31 51°19.937 2°50.252 -999 110 9 101820 77
2005-10-18 07:13:37 51°19.956 2°50.237 -999 112 9 101820 77
2005-10-18 07:13:42 51°19.971 2°50.225 -999 112 9 101830 77
2005-10-18 07:13:47 51°19.987 2°50.212 -999 106 9 101830 77
2005-10-18 07:13:52 51°20.003 2°50.2 -999 96 9 101830 77
2005-10-18 07:13:57 51°20.019 2°50.188 -999 119 9 101830 77
2005-10-18 07:14:02 51°20.035 2°50.175 -999 101 9 101830 76
2005-10-18 07:14:07 51°20.05 2°50.163 -999 103 9 101830 76
2005-10-18 07:14:11 51°20.063 2°50.153 -999 103 9 101830 76
2005-10-18 07:14:17 51°20.082 2°50.138 -999 106 9 101830 76
2005-10-18 07:14:22 51°20.098 2°50.126 -999 96 9.1 101830 76
2005-10-18 07:14:27 51°20.113 2°50.113 -999 97 9.1 101830 76
2005-10-18 07:14:31 51°20.126 2°50.103 -999 99 9.1 101830 78
2005-10-18 07:14:37 51°20.145 2°50.088 -999 89 9.1 101830 78
2005-10-18 07:14:42 51°20.161 2°50.076 -999 91 9.1 101830 79
2005-10-18 07:14:47 51°20.176 2°50.063 -999 101 9.1 101830 79
2005-10-18 07:14:52 51°20.192 2°50.051 -999 102 9.1 101830 79
2005-10-18 07:14:57 51°20.208 2°50.038 -999 104 9.1 101830 79
2005-10-18 07:15:02 51°20.224 2°50.025 -999 102 9.1 101830 79
2005-10-18 07:15:07 51°20.24 2°50.012 -999 110 9.1 101830 79
2005-10-18 07:15:11 51°20.252 2°50.002 -999 102 9.1 101820 78
2005-10-18 07:15:17 51°20.271 2°49.987 -999 103 9.1 101820 78
2005-10-18 07:15:22 51°20.287 2°49.974 -999 98 9.1 101830 77
2005-10-18 07:15:27 51°20.302 2°49.961 -999 99 9.1 101830 77
2005-10-18 07:15:31 51°20.315 2°49.95 -999 102 9.1 101830 76
2005-10-18 07:15:37 51°20.333 2°49.934 -999 112 9.1 101830 76
2005-10-18 07:15:42 51°20.349 2°49.921 -999 112 9.1 101830 78
2005-10-18 07:15:47 51°20.364 2°49.908 -999 108 9.1 101830 78
2005-10-18 07:15:52 51°20.38 2°49.896 -999 105 9.1 101830 78
2005-10-18 07:15:57 51°20.396 2°49.883 -999 90 9.1 101830 78
2005-10-18 07:16:02 51°20.412 2°49.871 -999 99 9.1 101830 77
2005-10-18 07:16:07 51°20.427 2°49.857 -999 104 9.1 101830 77
2005-10-18 07:16:11 51°20.44 2°49.848 -999 98 9.1 101830 76
2005-10-18 07:16:17 51°20.459 2°49.833 -999 101 9.1 101830 76
2005-10-18 07:16:22 51°20.474 2°49.819 -999 105 9.2 101840 77
2005-10-18 07:16:27 51°20.49 2°49.806 -999 99 9.2 101840 77
2005-10-18 07:16:31 51°20.503 2°49.795 -999 107 9.2 101830 77
2005-10-18 07:16:37 51°20.522 2°49.779 -999 97 9.2 101830 77
2005-10-18 07:16:42 51°20.537 2°49.766 -999 105 9.2 101830 77
2005-10-18 07:16:47 51°20.553 2°49.753 -999 108 9.2 101830 77
2005-10-18 07:16:52 51°20.569 2°49.739 -999 105 9.2 101840 76
2005-10-18 07:16:57 51°20.584 2°49.726 -999 104 9.2 101840 76
2005-10-18 07:17:02 51°20.6 2°49.713 -999 99 9.2 101840 77
2005-10-18 07:17:07 51°20.616 2°49.699 -999 96 9.2 101840 77
2005-10-18 07:17:11 51°20.628 2°49.688 -999 95 9.2 101830 78
2005-10-18 07:17:17 51°20.647 2°49.672 -999 102 9.2 101830 78
2005-10-18 07:17:22 51°20.663 2°49.659 -999 96 9.2 101850 78
2005-10-18 07:17:27 51°20.678 2°49.646 -999 102 9.2 101850 78
2005-10-18 07:17:31 51°20.691 2°49.635 -999 112 9.3 101840 78
2005-10-18 07:17:37 51°20.709 2°49.619 -999 105 9.3 101840 78
2005-10-18 07:17:42 51°20.725 2°49.605 -999 100 9.2 101840 77
2005-10-18 07:17:47 51°20.741 2°49.592 -999 108 9.2 101840 77
2005-10-18 07:17:52 51°20.757 2°49.578 -999 91 9.2 101830 76
2005-10-18 07:17:57 51°20.773 2°49.566 -999 98 9.2 101830 76
2005-10-18 07:18:02 51°20.788 2°49.552 -999 103 9.2 101840 76
2005-10-18 07:18:07 51°20.805 2°49.538 -999 102 9.2 101840 76
2005-10-18 07:18:11 51°20.817 2°49.527 -999 104 9.2 101850 76
2005-10-18 07:18:17 51°20.836 2°49.512 -999 109 9.2 101850 76
2005-10-18 07:18:22 51°20.852 2°49.499 -999 102 9.2 101830 77
2005-10-18 07:18:27 51°20.867 2°49.484 -999 101 9.2 101830 77
2005-10-18 07:18:31 51°20.88 2°49.473 -999 109 9.2 101840 76
2005-10-18 07:18:37 51°20.899 2°49.457 -999 107 9.2 101840 76
2005-10-18 07:18:42 51°20.914 2°49.444 -999 98 9.2 101830 75
2005-10-18 07:18:47 51°20.931 2°49.431 -999 104 9.2 101830 75
2005-10-18 07:18:51 51°20.943 2°49.42 -999 108 9.2 101820 76
2005-10-18 07:18:57 51°20.962 2°49.404 -999 107 9.2 101820 76
2005-10-18 07:19:02 51°20.977 2°49.39 -999 104 9.2 101840 76
2005-10-18 07:19:07 51°20.993 2°49.377 -999 122 9.2 101840 76
2005-10-18 07:19:11 51°21.005 2°49.365 -999 98 9.2 101840 75
2005-10-18 07:19:17 51°21.024 2°49.349 -999 104 9.2 101840 75
2005-10-18 07:19:22 51°21.04 2°49.334 -999 107 9.2 101840 74
2005-10-18 07:19:27 51°21.056 2°49.321 -999 94 9.2 101840 74
2005-10-18 07:19:31 51°21.068 2°49.31 -999 106 9.2 101830 75
2005-10-18 07:19:37 51°21.087 2°49.293 -999 107 9.2 101830 75
2005-10-18 07:19:42 51°21.103 2°49.28 -999 115 9.2 101850 75
2005-10-18 07:19:47 51°21.12 2°49.266 -999 108 9.2 101850 75
2005-10-18 07:19:51 51°21.132 2°49.256 -999 97 9.2 101840 75
2005-10-18 07:19:57 51°21.151 2°49.24 -999 106 9.2 101840 75
2005-10-18 07:20:02 51°21.167 2°49.226 -999 107 9.2 101850 75
2005-10-18 07:20:07 51°21.183 2°49.213 -999 107 9.2 101850 75
2005-10-18 07:20:11 51°21.196 2°49.202 -999 96 9.2 101840 75
2005-10-18 07:20:17 51°21.215 2°49.187 -999 111 9.2 101840 75
2005-10-18 07:20:22 51°21.23 2°49.173 -999 113 9.2 101840 75
2005-10-18 07:20:27 51°21.246 2°49.159 -999 111 9.2 101840 75
2005-10-18 07:20:31 51°21.259 2°49.148 -999 112 9.3 101840 75
2005-10-18 07:20:37 51°21.278 2°49.132 -999 113 9.3 101840 75
2005-10-18 07:20:42 51°21.294 2°49.118 -999 109 9.3 101830 76
2005-10-18 07:20:47 51°21.309 2°49.104 -999 107 9.3 101830 76
2005-10-18 07:20:51 51°21.322 2°49.093 -999 112 9.3 101840 76
2005-10-18 07:20:57 51°21.341 2°49.077 -999 111 9.3 101840 76
2005-10-18 07:21:02 51°21.357 2°49.063 -999 115 9.3 101840 77
2005-10-18 07:21:07 51°21.373 2°49.05 -999 115 9.3 101840 77
2005-10-18 07:21:11 51°21.386 2°49.039 -999 116 9.4 101840 77
2005-10-18 07:21:17 51°21.405 2°49.023 -999 109 9.4 101840 77
2005-10-18 07:21:22 51°21.42 2°49.009 -999 107 9.3 101840 75
2005-10-18 07:21:27 51°21.436 2°48.995 -999 105 9.3 101840 75
2005-10-18 07:21:32 51°21.452 2°48.981 -999 103 9.3 101850 74
2005-10-18 07:21:37 51°21.468 2°48.968 -999 114 9.3 101850 74
2005-10-18 07:21:42 51°21.484 2°48.954 -999 102 9.4 101850 76
2005-10-18 07:21:47 51°21.5 2°48.939 -999 103 9.4 101850 76
2005-10-18 07:21:51 51°21.513 2°48.928 -999 101 9.4 101850 76
2005-10-18 07:21:57 51°21.532 2°48.912 -999 104 9.4 101850 76
2005-10-18 07:22:02 51°21.548 2°48.897 -999 107 9.4 101830 77
2005-10-18 07:22:07 51°21.564 2°48.884 -999 105 9.4 101830 77
2005-10-18 07:22:11 51°21.576 2°48.872 -999 100 9.4 101840 77
2005-10-18 07:22:17 51°21.595 2°48.856 -999 111 9.4 101840 77
2005-10-18 07:22:22 51°21.611 2°48.842 -999 115 9.4 101840 77
2005-10-18 07:22:27 51°21.627 2°48.827 -999 115 9.4 101840 77
2005-10-18 07:22:31 51°21.639 2°48.816 -999 124 9.4 101840 76
2005-10-18 07:22:37 51°21.659 2°48.8 -999 106 9.4 101840 76
2005-10-18 07:22:42 51°21.674 2°48.786 -999 108 9.4 101820 76
2005-10-18 07:22:47 51°21.69 2°48.772 -999 109 9.4 101820 76
2005-10-18 07:22:51 51°21.703 2°48.76 -999 105 9.5 101830 76
2005-10-18 07:22:57 51°21.722 2°48.744 -999 105 9.5 101830 76
2005-10-18 07:23:02 51°21.738 2°48.73 -999 109 9.4 101840 75
2005-10-18 07:23:07 51°21.754 2°48.716 -999 107 9.4 101840 75
2005-10-18 07:23:11 51°21.767 2°48.705 -999 101 9.5 101840 75
2005-10-18 07:23:17 51°21.786 2°48.688 -999 109 9.5 101840 75
2005-10-18 07:23:22 51°21.802 2°48.674 -999 112 9.5 101840 75
2005-10-18 07:23:27 51°21.818 2°48.661 -999 115 9.5 101840 75
2005-10-18 07:23:32 51°21.834 2°48.647 -999 118 9.4 101830 74
2005-10-18 07:23:37 51°21.85 2°48.634 -999 112 9.4 101830 74
2005-10-18 07:23:42 51°21.865 2°48.62 -999 109 9.5 101830 74
2005-10-18 07:23:47 51°21.881 2°48.607 -999 117 9.5 101830 74
2005-10-18 07:23:51 51°21.894 2°48.597 -999 110 9.4 101830 74
2005-10-18 07:23:57 51°21.913 2°48.58 -999 113 9.4 101830 74
2005-10-18 07:24:02 51°21.929 2°48.567 -999 111 9.5 101840 75
2005-10-18 07:24:07 51°21.944 2°48.553 -999 101 9.5 101840 75
2005-10-18 07:24:11 51°21.957 2°48.542 -999 119 9.5 101830 75
2005-10-18 07:24:17 51°21.976 2°48.525 -999 106 9.5 101830 75
2005-10-18 07:24:22 51°21.991 2°48.51 -999 108 9.5 101840 75
2005-10-18 07:24:27 51°22.006 2°48.494 -999 105 9.5 101840 75
2005-10-18 07:24:31 51°22.018 2°48.482 -999 113 9.5 101830 75
2005-10-18 07:24:37 51°22.037 2°48.463 -999 111 9.5 101830 75
2005-10-18 07:24:42 51°22.052 2°48.447 -999 112 9.5 101840 75
2005-10-18 07:24:47 51°22.067 2°48.431 -999 115 9.5 101840 75
2005-10-18 07:24:51 51°22.079 2°48.419 -999 104 9.6 101830 75
2005-10-18 07:24:57 51°22.098 2°48.401 -999 109 9.6 101830 75
2005-10-18 07:25:02 51°22.113 2°48.386 -999 92 9.5 101820 74
2005-10-18 07:25:07 51°22.129 2°48.372 -999 103 9.5 101820 74
2005-10-18 07:25:11 51°22.142 2°48.361 -999 106 9.6 101830 73
2005-10-18 07:25:17 51°22.16 2°48.343 -999 99 9.6 101830 73
2005-10-18 07:25:22 51°22.176 2°48.33 -999 115 9.6 101840 74
2005-10-18 07:25:27 51°22.191 2°48.316 -999 112 9.6 101840 74
2005-10-18 07:25:32 51°22.206 2°48.302 -999 110 9.6 101810 73
2005-10-18 07:25:37 51°22.222 2°48.286 -999 121 9.6 101810 73
2005-10-18 07:25:42 51°22.237 2°48.27 -999 117 9.6 101820 74
2005-10-18 07:25:47 51°22.252 2°48.255 -999 115 9.6 101820 74
2005-10-18 07:25:51 51°22.263 2°48.242 -999 126 9.6 101820 73
2005-10-18 07:25:57 51°22.281 2°48.222 -999 122 9.6 101820 73
2005-10-18 07:26:02 51°22.295 2°48.206 -999 115 9.6 101820 73
2005-10-18 07:26:07 51°22.31 2°48.189 -999 116 9.6 101820 73
2005-10-18 07:26:11 51°22.321 2°48.176 -999 123 9.6 101840 73
2005-10-18 07:26:17 51°22.338 2°48.157 -999 132 9.6 101840 73
2005-10-18 07:26:22 51°22.353 2°48.141 -999 134 9.6 101830 73
2005-10-18 07:26:27 51°22.367 2°48.124 -999 128 9.6 101830 73
2005-10-18 07:26:32 51°22.38 2°48.107 -999 119 9.7 101830 74
2005-10-18 07:26:37 51°22.394 2°48.09 -999 132 9.7 101830 74
2005-10-18 07:26:42 51°22.407 2°48.071 -999 116 9.7 101820 75
2005-10-18 07:26:47 51°22.421 2°48.055 -999 126 9.7 101820 75
2005-10-18 07:26:51 51°22.432 2°48.041 -999 118 9.7 101830 76
2005-10-18 07:26:57 51°22.448 2°48.021 -999 122 9.7 101830 76
2005-10-18 07:27:02 51°22.462 2°48.006 -999 124 9.7 101830 75
2005-10-18 07:27:07 51°22.476 2°47.989 -999 121 9.7 101830 75
2005-10-18 07:27:11 51°22.487 2°47.976 -999 120 9.7 101820 75
2005-10-18 07:27:17 51°22.504 2°47.958 -999 131 9.7 101820 75
2005-10-18 07:27:22 51°22.519 2°47.943 -999 125 9.7 101830 74
2005-10-18 07:27:27 51°22.533 2°47.927 -999 119 9.7 101830 74
2005-10-18 07:27:32 51°22.548 2°47.912 -999 107 9.7 101830 73
2005-10-18 07:27:37 51°22.562 2°47.896 -999 121 9.7 101830 73
2005-10-18 07:27:42 51°22.577 2°47.88 -999 126 9.7 101840 74
2005-10-18 07:27:47 51°22.591 2°47.865 -999 113 9.7 101840 74
2005-10-18 07:27:51 51°22.602 2°47.852 -999 116 9.8 101830 76
2005-10-18 07:27:57 51°22.619 2°47.832 -999 115 9.8 101830 76
2005-10-18 07:28:02 51°22.633 2°47.816 -999 116 9.8 101840 75
2005-10-18 07:28:07 51°22.647 2°47.798 -999 122 9.8 101840 75
2005-10-18 07:28:11 51°22.658 2°47.786 -999 121 9.8 101840 74
2005-10-18 07:28:17 51°22.675 2°47.765 -999 123 9.8 101840 74
2005-10-18 07:28:22 51°22.689 2°47.749 -999 121 9.8 101840 74
2005-10-18 07:28:27 51°22.702 2°47.732 -999 103 9.8 101840 74
2005-10-18 07:28:31 51°22.714 2°47.719 -999 117 9.8 101830 74
2005-10-18 07:28:37 51°22.731 2°47.699 -999 112 9.8 101830 74
2005-10-18 07:28:42 51°22.745 2°47.683 -999 116 9.8 101820 74
2005-10-18 07:28:47 51°22.758 2°47.665 -999 127 9.8 101820 74
2005-10-18 07:28:51 51°22.769 2°47.652 -999 129 9.8 101830 76
2005-10-18 07:28:57 51°22.786 2°47.631 -999 117 9.8 101830 76
2005-10-18 07:29:02 51°22.8 2°47.614 -999 125 9.8 101840 76
2005-10-18 07:29:07 51°22.814 2°47.598 -999 121 9.8 101840 76
2005-10-18 07:29:11 51°22.825 2°47.585 -999 118 9.8 101830 75
2005-10-18 07:29:17 51°22.842 2°47.563 -999 117 9.8 101830 75
2005-10-18 07:29:22 51°22.856 2°47.548 -999 111 9.8 101830 74
2005-10-18 07:29:27 51°22.87 2°47.53 -999 116 9.8 101830 74
2005-10-18 07:29:32 51°22.884 2°47.513 -999 118 9.8 101840 74
2005-10-18 07:29:37 51°22.898 2°47.496 -999 116 9.8 101840 74
2005-10-18 07:29:42 51°22.911 2°47.479 -999 118 9.9 101850 74
2005-10-18 07:29:47 51°22.925 2°47.461 -999 117 9.9 101850 74
2005-10-18 07:29:51 51°22.936 2°47.448 -999 117 9.8 101820 74
2005-10-18 07:29:57 51°22.953 2°47.427 -999 112 9.8 101820 74
2005-10-18 07:30:02 51°22.967 2°47.41 -999 115 9.8 101830 73
2005-10-18 07:30:07 51°22.982 2°47.394 -999 111 9.8 101830 73
2005-10-18 07:30:11 51°22.993 2°47.381 -999 108 9.8 101840 74
2005-10-18 07:30:17 51°23.01 2°47.362 -999 118 9.8 101840 74
2005-10-18 07:30:22 51°23.024 2°47.344 -999 121 9.8 101840 73
2005-10-18 07:30:27 51°23.039 2°47.329 -999 112 9.8 101840 73
2005-10-18 07:30:31 51°23.05 2°47.316 -999 124 9.9 101830 74
2005-10-18 07:30:37 51°23.067 2°47.296 -999 117 9.9 101830 74
2005-10-18 07:30:42 51°23.082 2°47.28 -999 119 9.9 101830 74
2005-10-18 07:30:47 51°23.096 2°47.263 -999 124 9.9 101830 74
2005-10-18 07:30:51 51°23.108 2°47.25 -999 124 9.8 101840 73
2005-10-18 07:30:57 51°23.125 2°47.23 -999 125 9.8 101840 73
2005-10-18 07:31:02 51°23.139 2°47.213 -999 115 9.8 101830 73
2005-10-18 07:31:07 51°23.154 2°47.198 -999 116 9.8 101830 73
2005-10-18 07:31:11 51°23.165 2°47.185 -999 119 9.8 101840 73
2005-10-18 07:31:17 51°23.183 2°47.166 -999 124 9.8 101840 73
2005-10-18 07:31:22 51°23.197 2°47.149 -999 119 9.8 101840 72
2005-10-18 07:31:27 51°23.211 2°47.132 -999 131 9.8 101840 72
2005-10-18 07:31:31 51°23.222 2°47.118 -999 127 9.9 101830 74
2005-10-18 07:31:37 51°23.239 2°47.098 -999 124 9.9 101830 74
2005-10-18 07:31:42 51°23.253 2°47.081 -999 120 9.9 101830 75
2005-10-18 07:31:47 51°23.267 2°47.063 -999 117 9.9 101830 75
2005-10-18 07:31:52 51°23.281 2°47.046 -999 120 9.9 101840 74
2005-10-18 07:31:57 51°23.295 2°47.029 -999 124 9.9 101840 74
2005-10-18 07:32:02 51°23.31 2°47.013 -999 124 9.9 101830 72
2005-10-18 07:32:07 51°23.324 2°46.996 -999 116 9.9 101830 72
2005-10-18 07:32:11 51°23.335 2°46.984 -999 121 9.9 101830 73
2005-10-18 07:32:17 51°23.352 2°46.964 -999 118 9.9 101830 73
2005-10-18 07:32:22 51°23.366 2°46.947 -999 122 9.9 101830 74
2005-10-18 07:32:27 51°23.381 2°46.93 -999 115 9.9 101830 74
2005-10-18 07:32:31 51°23.393 2°46.918 -999 129 10 101830 74
2005-10-18 07:32:37 51°23.409 2°46.896 -999 118 10 101830 74
2005-10-18 07:32:42 51°23.424 2°46.881 -999 117 9.9 101830 73
2005-10-18 07:32:47 51°23.439 2°46.864 -999 114 9.9 101830 73
2005-10-18 07:32:51 51°23.45 2°46.85 -999 121 10 101830 72
2005-10-18 07:32:57 51°23.467 2°46.83 -999 121 10 101830 72
2005-10-18 07:33:02 51°23.482 2°46.814 -999 107 10 101830 73
2005-10-18 07:33:07 51°23.496 2°46.798 -999 114 10 101830 73
2005-10-18 07:33:11 51°23.508 2°46.784 -999 117 10 101840 73
2005-10-18 07:33:17 51°23.525 2°46.765 -999 120 10 101840 73
2005-10-18 07:33:22 51°23.54 2°46.748 -999 110 10 101830 73
2005-10-18 07:33:27 51°23.553 2°46.732 -999 108 10 101830 73
2005-10-18 07:33:31 51°23.565 2°46.719 -999 111 10 101820 74
2005-10-18 07:33:37 51°23.583 2°46.703 -999 122 10 101820 74
2005-10-18 07:33:43 51°23.6 2°46.685 -999 111 10.1 101830 75
2005-10-18 07:33:47 51°23.612 2°46.675 -999 107 10.1 101830 75
2005-10-18 07:33:51 51°23.624 2°46.666 -999 115 10 101820 74
2005-10-18 07:33:57 51°23.642 2°46.65 -999 106 10 101820 74
2005-10-18 07:34:02 51°23.657 2°46.639 -999 117 10 101840 73
2005-10-18 07:34:07 51°23.673 2°46.628 -999 104 10 101840 73
2005-10-18 07:34:11 51°23.686 2°46.621 -999 110 10 101830 74
2005-10-18 07:34:17 51°23.705 2°46.609 -999 99 10 101830 74
2005-10-18 07:34:22 51°23.721 2°46.601 -999 95 10 101820 72
2005-10-18 07:34:27 51°23.737 2°46.594 -999 94 10 101820 72
2005-10-18 07:34:31 51°23.75 2°46.588 -999 93 10 101820 72
2005-10-18 07:34:37 51°23.769 2°46.582 -999 91 10 101820 72
2005-10-18 07:34:42 51°23.786 2°46.577 -999 93 10 101820 73
2005-10-18 07:34:47 51°23.801 2°46.572 -999 83 10 101820 73
2005-10-18 07:34:51 51°23.814 2°46.57 -999 81 10 101820 74
2005-10-18 07:34:57 51°23.834 2°46.566 -999 87 10 101820 74
2005-10-18 07:35:02 51°23.85 2°46.566 -999 86 10 101820 73
2005-10-18 07:35:07 51°23.866 2°46.564 -999 85 10 101820 73
2005-10-18 07:35:11 51°23.878 2°46.565 -999 79 10 101810 73
2005-10-18 07:35:17 51°23.897 2°46.566 -999 86 10 101810 73
2005-10-18 07:35:22 51°23.913 2°46.569 -999 82 10 101820 73
2005-10-18 07:35:27 51°23.928 2°46.571 -999 81 10 101820 73
2005-10-18 07:35:32 51°23.943 2°46.577 -999 81 10 101810 73
2005-10-18 07:35:37 51°23.959 2°46.581 -999 81 10 101810 73
2005-10-18 07:35:42 51°23.973 2°46.586 -999 65 10 101790 72
2005-10-18 07:35:47 51°23.988 2°46.594 -999 72 10 101790 72
2005-10-18 07:35:51 51°24 2°46.599 -999 79 10 101780 72
2005-10-18 07:35:57 51°24.017 2°46.61 -999 68 10 101780 72
2005-10-18 07:36:02 51°24.03 2°46.62 -999 77 10 101790 72
2005-10-18 07:36:07 51°24.044 2°46.629 -999 65 10 101790 72
2005-10-18 07:36:11 51°24.055 2°46.638 -999 72 10 101800 73
2005-10-18 07:36:17 51°24.072 2°46.649 -999 67 10 101800 73
2005-10-18 07:36:22 51°24.085 2°46.661 -999 71 10 101800 73
2005-10-18 07:36:27 51°24.099 2°46.671 -999 70 10 101800 73
2005-10-18 07:36:31 51°24.109 2°46.681 -999 66 10 101780 72
2005-10-18 07:36:37 51°24.125 2°46.694 -999 73 10 101780 72
2005-10-18 07:36:42 51°24.138 2°46.705 -999 57 10 101810 71
2005-10-18 07:36:47 51°24.151 2°46.717 -999 58 10 101810 71
2005-10-18 07:36:51 51°24.162 2°46.727 -999 59 10 101790 71
2005-10-18 07:36:57 51°24.177 2°46.742 -999 58 10 101790 71
2005-10-18 07:37:02 51°24.189 2°46.756 -999 58 10.1 101790 72
2005-10-18 07:37:07 51°24.201 2°46.769 -999 59 10.1 101790 72
2005-10-18 07:37:11 51°24.211 2°46.782 -999 60 10.1 101780 73
2005-10-18 07:37:17 51°24.225 2°46.799 -999 62 10.1 101780 73
2005-10-18 07:37:22 51°24.236 2°46.815 -999 63 10.1 101780 73
2005-10-18 07:37:27 51°24.248 2°46.83 -999 61 10.1 101780 73
2005-10-18 07:37:31 51°24.257 2°46.842 -999 62 10 101790 72
2005-10-18 07:37:37 51°24.27 2°46.862 -999 56 10 101790 72
2005-10-18 07:37:42 51°24.281 2°46.878 -999 56 10 101790 71
2005-10-18 07:37:47 51°24.292 2°46.894 -999 53 10 101790 71
2005-10-18 07:37:51 51°24.301 2°46.906 -999 55 10.1 101780 72
2005-10-18 07:37:57 51°24.314 2°46.925 -999 53 10.1 101780 72
2005-10-18 07:38:02 51°24.326 2°46.941 -999 53 10.1 101780 72
2005-10-18 07:38:07 51°24.337 2°46.956 -999 52 10.1 101780 72
2005-10-18 07:38:11 51°24.346 2°46.968 -999 56 10.1 101790 72
2005-10-18 07:38:17 51°24.36 2°46.987 -999 55 10.1 101790 72
2005-10-18 07:38:22 51°24.371 2°47.001 -999 59 10.1 101780 72
2005-10-18 07:38:27 51°24.382 2°47.018 -999 62 10.1 101780 72
2005-10-18 07:38:31 51°24.391 2°47.031 -999 60 10.1 101770 72
2005-10-18 07:38:37 51°24.404 2°47.05 -999 52 10.1 101770 72
2005-10-18 07:38:42 51°24.415 2°47.066 -999 55 10.1 101780 72
2005-10-18 07:38:47 51°24.425 2°47.084 -999 53 10.1 101780 72
2005-10-18 07:38:51 51°24.433 2°47.098 -999 56 10.1 101770 72
2005-10-18 07:38:57 51°24.445 2°47.119 -999 55 10.1 101770 72
2005-10-18 07:39:02 51°24.454 2°47.137 -999 53 10.1 101780 73
2005-10-18 07:39:07 51°24.463 2°47.156 -999 52 10.1 101780 73
2005-10-18 07:39:11 51°24.47 2°47.171 -999 52 10.1 101790 73
2005-10-18 07:39:17 51°24.481 2°47.193 -999 55 10.1 101790 73
2005-10-18 07:39:22 51°24.49 2°47.212 -999 54 10.1 101790 72
2005-10-18 07:39:27 51°24.499 2°47.231 -999 52 10.1 101790 72
2005-10-18 07:39:31 51°24.506 2°47.246 -999 54 10.1 101770 71
2005-10-18 07:39:37 51°24.517 2°47.268 -999 55 10.1 101770 71
2005-10-18 07:39:42 51°24.525 2°47.287 -999 58 10.2 101770 70
2005-10-18 07:39:47 51°24.534 2°47.305 -999 54 10.2 101770 70
2005-10-18 07:39:51 51°24.542 2°47.32 -999 56 10.2 101780 72
2005-10-18 07:39:57 51°24.552 2°47.343 -999 41 10.2 101780 72
2005-10-18 07:40:02 51°24.561 2°47.362 -999 49 10.1 101780 70
2005-10-18 07:40:07 51°24.57 2°47.381 -999 49 10.1 101780 70
2005-10-18 07:40:11 51°24.577 2°47.396 -999 46 10.2 101790 70
2005-10-18 07:40:17 51°24.587 2°47.418 -999 46 10.2 101790 70
2005-10-18 07:40:22 51°24.596 2°47.438 -999 45 10.2 101780 72
2005-10-18 07:40:27 51°24.604 2°47.457 -999 53 10.2 101780 72
2005-10-18 07:40:31 51°24.611 2°47.472 -999 52 10.2 101770 71
2005-10-18 07:40:37 51°24.621 2°47.496 -999 54 10.2 101770 71
2005-10-18 07:40:42 51°24.629 2°47.515 -999 49 10.2 101780 72
2005-10-18 07:40:47 51°24.637 2°47.534 -999 46 10.2 101780 72
2005-10-18 07:40:51 51°24.644 2°47.549 -999 53 10.2 101780 71
2005-10-18 07:40:57 51°24.654 2°47.571 -999 51 10.2 101780 71
2005-10-18 07:41:02 51°24.663 2°47.59 -999 48 10.2 101780 72
2005-10-18 07:41:07 51°24.671 2°47.609 -999 52 10.2 101780 72
2005-10-18 07:41:11 51°24.678 2°47.624 -999 51 10.2 101790 72
2005-10-18 07:41:17 51°24.688 2°47.646 -999 51 10.2 101790 72
2005-10-18 07:41:22 51°24.697 2°47.665 -999 54 10.2 101770 72
2005-10-18 07:41:27 51°24.705 2°47.684 -999 52 10.2 101770 72
2005-10-18 07:41:31 51°24.712 2°47.699 -999 47 10.2 101770 71
2005-10-18 07:41:37 51°24.721 2°47.723 -999 44 10.2 101770 71
2005-10-18 07:41:42 51°24.729 2°47.743 -999 51 10.1 101770 70
2005-10-18 07:41:47 51°24.736 2°47.763 -999 54 10.1 101770 70
2005-10-18 07:41:51 51°24.742 2°47.779 -999 52 10.2 101770 72
2005-10-18 07:41:57 51°24.75 2°47.804 -999 53 10.2 101770 72
2005-10-18 07:42:02 51°24.758 2°47.824 -999 50 10.1 101770 71
2005-10-18 07:42:07 51°24.765 2°47.844 -999 44 10.1 101770 71
2005-10-18 07:42:12 51°24.772 2°47.864 -999 44 10.1 101780 70
2005-10-18 07:42:17 51°24.779 2°47.885 -999 42 10.1 101780 70
2005-10-18 07:42:22 51°24.786 2°47.904 -999 45 10.2 101780 71
2005-10-18 07:42:27 51°24.794 2°47.925 -999 41 10.2 101780 71
2005-10-18 07:42:31 51°24.8 2°47.94 -999 44 10.2 101770 72
2005-10-18 07:42:37 51°24.808 2°47.964 -999 48 10.2 101770 72
2005-10-18 07:42:42 51°24.816 2°47.985 -999 48 10.2 101790 71
2005-10-18 07:42:47 51°24.823 2°48.005 -999 52 10.2 101790 71
2005-10-18 07:42:52 51°24.83 2°48.025 -999 53 10.2 101790 72
2005-10-18 07:42:57 51°24.837 2°48.045 -999 41 10.2 101790 72
2005-10-18 07:43:02 51°24.844 2°48.066 -999 43 10.2 101800 72
2005-10-18 07:43:07 51°24.851 2°48.087 -999 47 10.2 101800 72
2005-10-18 07:43:11 51°24.856 2°48.103 -999 48 10.2 101780 71
2005-10-18 07:43:17 51°24.864 2°48.129 -999 41 10.2 101780 71
2005-10-18 07:43:22 51°24.87 2°48.15 -999 42 10.2 101780 72
2005-10-18 07:43:27 51°24.876 2°48.171 -999 42 10.2 101780 72
2005-10-18 07:43:31 51°24.881 2°48.188 -999 44 10.2 101790 71
2005-10-18 07:43:37 51°24.889 2°48.213 -999 42 10.2 101790 71
2005-10-18 07:43:42 51°24.895 2°48.234 -999 40 10.2 101780 71
2005-10-18 07:43:47 51°24.901 2°48.255 -999 41 10.2 101780 71
2005-10-18 07:43:51 51°24.906 2°48.272 -999 51 10.1 101790 69
2005-10-18 07:43:57 51°24.914 2°48.297 -999 45 10.1 101790 69
2005-10-18 07:44:02 51°24.92 2°48.318 -999 48 10.2 101770 71
2005-10-18 07:44:07 51°24.926 2°48.339 -999 46 10.2 101770 71
2005-10-18 07:44:11 51°24.931 2°48.356 -999 50 10.2 101790 71
2005-10-18 07:44:17 51°24.939 2°48.381 -999 44 10.2 101790 71
2005-10-18 07:44:22 51°24.945 2°48.402 -999 45 10.1 101790 71
2005-10-18 07:44:27 51°24.951 2°48.423 -999 42 10.1 101790 71
2005-10-18 07:44:31 51°24.957 2°48.44 -999 41 10.1 101760 69
2005-10-18 07:44:37 51°24.964 2°48.465 -999 44 10.1 101760 69
2005-10-18 07:44:42 51°24.97 2°48.486 -999 37 10.1 101850 71
2005-10-18 07:44:47 51°24.977 2°48.507 -999 44 10.1 101850 71
2005-10-18 07:44:51 51°24.982 2°48.524 -999 42 10.1 101780 71
2005-10-18 07:44:57 51°24.989 2°48.549 -999 48 10.1 101780 71
2005-10-18 07:45:02 51°24.996 2°48.57 -999 39 10.1 101790 70
2005-10-18 07:45:07 51°25.002 2°48.591 -999 46 10.1 101790 70
2005-10-18 07:45:11 51°25.007 2°48.607 -999 47 10.1 101800 69
2005-10-18 07:45:17 51°25.014 2°48.632 -999 49 10.1 101800 69
2005-10-18 07:45:22 51°25.021 2°48.653 -999 45 10.1 101770 69
2005-10-18 07:45:27 51°25.027 2°48.673 -999 51 10.1 101770 69
2005-10-18 07:45:31 51°25.032 2°48.69 -999 50 10.1 101780 69
2005-10-18 07:45:37 51°25.039 2°48.715 -999 48 10.1 101780 69
2005-10-18 07:45:42 51°25.046 2°48.736 -999 44 10.1 101780 69
2005-10-18 07:45:47 51°25.052 2°48.756 -999 40 10.1 101780 69
2005-10-18 07:45:51 51°25.057 2°48.773 -999 41 10.1 101770 68
2005-10-18 07:45:57 51°25.065 2°48.798 -999 41 10.1 101770 68
2005-10-18 07:46:02 51°25.071 2°48.819 -999 38 10.1 101780 70
2005-10-18 07:46:07 51°25.078 2°48.841 -999 39 10.1 101780 70
2005-10-18 07:46:11 51°25.083 2°48.858 -999 42 10.1 101790 70
2005-10-18 07:46:17 51°25.091 2°48.882 -999 40 10.1 101790 70
2005-10-18 07:46:22 51°25.097 2°48.903 -999 39 10.1 101790 70
2005-10-18 07:46:27 51°25.104 2°48.923 -999 43 10.1 101790 70
2005-10-18 07:46:31 51°25.108 2°48.939 -999 44 10.1 101770 70
2005-10-18 07:46:37 51°25.116 2°48.964 -999 40 10.1 101770 70
2005-10-18 07:46:42 51°25.122 2°48.985 -999 40 10.1 101780 69
2005-10-18 07:46:47 51°25.128 2°49.005 -999 42 10.1 101780 69
2005-10-18 07:46:51 51°25.133 2°49.022 -999 43 10.2 101780 70
2005-10-18 07:46:57 51°25.14 2°49.047 -999 42 10.2 101780 70
2005-10-18 07:47:02 51°25.146 2°49.068 -999 36 10.2 101780 70
2005-10-18 07:47:07 51°25.153 2°49.089 -999 42 10.2 101780 70
2005-10-18 07:47:11 51°25.158 2°49.105 -999 48 10.2 101790 70
2005-10-18 07:47:17 51°25.165 2°49.13 -999 50 10.2 101790 70
2005-10-18 07:47:22 51°25.172 2°49.15 -999 45 10.2 101780 72
2005-10-18 07:47:27 51°25.178 2°49.171 -999 44 10.2 101780 72
2005-10-18 07:47:31 51°25.183 2°49.187 -999 43 10.2 101780 70
2005-10-18 07:47:37 51°25.19 2°49.212 -999 41 10.2 101780 70
2005-10-18 07:47:43 51°25.198 2°49.237 -999 39 10.2 101770 69
2005-10-18 07:47:47 51°25.202 2°49.254 -999 37 10.2 101770 69
2005-10-18 07:47:51 51°25.207 2°49.271 -999 40 10.2 101760 69
2005-10-18 07:47:57 51°25.214 2°49.296 -999 37 10.2 101760 69
2005-10-18 07:48:02 51°25.22 2°49.317 -999 40 10.2 101780 71
2005-10-18 07:48:07 51°25.225 2°49.339 -999 37 10.2 101780 71
2005-10-18 07:48:11 51°25.23 2°49.356 -999 40 10.3 101800 71
2005-10-18 07:48:17 51°25.237 2°49.382 -999 43 10.3 101800 71
2005-10-18 07:48:22 51°25.243 2°49.403 -999 40 10.3 101800 72
2005-10-18 07:48:27 51°25.248 2°49.425 -999 39 10.3 101800 72
2005-10-18 07:48:31 51°25.253 2°49.442 -999 41 10.2 101780 70
2005-10-18 07:48:37 51°25.26 2°49.467 -999 38 10.2 101780 70
2005-10-18 07:48:42 51°25.266 2°49.489 -999 40 10.2 101790 69
2005-10-18 07:48:47 51°25.272 2°49.51 -999 40 10.2 101790 69
2005-10-18 07:48:51 51°25.276 2°49.527 -999 45 10.3 101780 71
2005-10-18 07:48:57 51°25.282 2°49.552 -999 41 10.3 101780 71
2005-10-18 07:49:02 51°25.287 2°49.572 -999 46 10.2 101770 71
2005-10-18 07:49:07 51°25.293 2°49.593 -999 42 10.2 101770 71
2005-10-18 07:49:11 51°25.297 2°49.61 -999 42 10.2 101770 71
2005-10-18 07:49:17 51°25.304 2°49.635 -999 52 10.2 101770 71
2005-10-18 07:49:22 51°25.31 2°49.656 -999 51 10.2 101760 69
2005-10-18 07:49:27 51°25.316 2°49.677 -999 49 10.2 101760 69
2005-10-18 07:49:31 51°25.321 2°49.694 -999 44 10.2 101780 70
2005-10-18 07:49:37 51°25.327 2°49.72 -999 42 10.2 101780 70
2005-10-18 07:49:42 51°25.332 2°49.742 -999 38 10.2 101780 70
2005-10-18 07:49:47 51°25.338 2°49.763 -999 35 10.2 101780 70
2005-10-18 07:49:51 51°25.342 2°49.781 -999 40 10.2 101780 71
2005-10-18 07:49:57 51°25.348 2°49.806 -999 38 10.2 101780 71
2005-10-18 07:50:02 51°25.352 2°49.828 -999 39 10.2 101760 72
2005-10-18 07:50:07 51°25.357 2°49.85 -999 41 10.2 101760 72
2005-10-18 07:50:11 51°25.361 2°49.867 -999 41 10.2 101780 73
2005-10-18 07:50:17 51°25.367 2°49.894 -999 41 10.2 101780 73
2005-10-18 07:50:22 51°25.371 2°49.915 -999 39 10.2 101770 72
2005-10-18 07:50:27 51°25.376 2°49.937 -999 44 10.2 101770 72
2005-10-18 07:50:31 51°25.38 2°49.955 -999 43 10.2 101770 71
2005-10-18 07:50:37 51°25.386 2°49.98 -999 44 10.2 101770 71
2005-10-18 07:50:42 51°25.391 2°50.002 -999 46 10.2 101780 71
2005-10-18 07:50:47 51°25.395 2°50.024 -999 40 10.2 101780 71
2005-10-18 07:50:52 51°25.4 2°50.046 -999 45 10.2 101760 70
2005-10-18 07:50:57 51°25.404 2°50.069 -999 39 10.2 101760 70
2005-10-18 07:51:02 51°25.41 2°50.09 -999 37 10.2 101760 71
2005-10-18 07:51:07 51°25.414 2°50.112 -999 40 10.2 101760 71
2005-10-18 07:51:11 51°25.418 2°50.13 -999 38 10.2 101790 72
2005-10-18 07:51:17 51°25.424 2°50.156 -999 40 10.2 101790 72
2005-10-18 07:51:22 51°25.428 2°50.177 -999 41 10.2 101760 72
2005-10-18 07:51:27 51°25.433 2°50.199 -999 40 10.2 101760 72
2005-10-18 07:51:32 51°25.438 2°50.221 -999 40 10.2 101760 72
2005-10-18 07:51:37 51°25.442 2°50.242 -999 45 10.2 101760 72
2005-10-18 07:51:42 51°25.447 2°50.264 -999 42 10.2 101750 69
2005-10-18 07:51:47 51°25.451 2°50.285 -999 47 10.2 101750 69
2005-10-18 07:51:51 51°25.455 2°50.303 -999 44 10.2 101740 71
2005-10-18 07:51:57 51°25.461 2°50.33 -999 44 10.2 101740 71
2005-10-18 07:52:02 51°25.466 2°50.351 -999 41 10.2 101740 71
2005-10-18 07:52:07 51°25.47 2°50.373 -999 49 10.2 101740 71
2005-10-18 07:52:11 51°25.474 2°50.39 -999 40 10.2 101750 69
2005-10-18 07:52:17 51°25.48 2°50.417 -999 40 10.2 101750 69
2005-10-18 07:52:22 51°25.484 2°50.439 -999 39 10.2 101750 71
2005-10-18 07:52:27 51°25.489 2°50.461 -999 39 10.2 101750 71
2005-10-18 07:52:32 51°25.493 2°50.483 -999 38 10.2 101760 72
2005-10-18 07:52:37 51°25.498 2°50.505 -999 38 10.2 101760 72
2005-10-18 07:52:42 51°25.502 2°50.526 -999 42 10.3 101760 71
2005-10-18 07:52:47 51°25.507 2°50.548 -999 36 10.3 101760 71
2005-10-18 07:52:51 51°25.511 2°50.565 -999 44 10.3 101750 73
2005-10-18 07:52:57 51°25.516 2°50.591 -999 42 10.3 101750 73
2005-10-18 07:53:02 51°25.521 2°50.613 -999 47 10.3 101760 72
2005-10-18 07:53:07 51°25.526 2°50.635 -999 45 10.3 101760 72
2005-10-18 07:53:11 51°25.53 2°50.652 -999 46 10.3 101750 69
2005-10-18 07:53:17 51°25.535 2°50.678 -999 41 10.3 101750 69
2005-10-18 07:53:22 51°25.54 2°50.7 -999 44 10.3 101740 68
2005-10-18 07:53:27 51°25.545 2°50.722 -999 48 10.3 101740 68
2005-10-18 07:53:32 51°25.549 2°50.744 -999 44 10.2 101750 67
2005-10-18 07:53:37 51°25.554 2°50.766 -999 44 10.2 101750 67
2005-10-18 07:53:42 51°25.559 2°50.788 -999 44 10.2 101740 69
2005-10-18 07:53:47 51°25.564 2°50.809 -999 51 10.2 101740 69
2005-10-18 07:53:51 51°25.567 2°50.826 -999 37 10.2 101740 69
2005-10-18 07:53:57 51°25.573 2°50.852 -999 41 10.2 101740 69
2005-10-18 07:54:02 51°25.578 2°50.874 -999 46 10.2 101760 69
2005-10-18 07:54:07 51°25.583 2°50.895 -999 53 10.2 101760 69
2005-10-18 07:54:11 51°25.587 2°50.913 -999 49 10.2 101740 71
2005-10-18 07:54:17 51°25.592 2°50.94 -999 36 10.2 101740 71
2005-10-18 07:54:22 51°25.597 2°50.961 -999 34 10.2 101750 72
2005-10-18 07:54:27 51°25.601 2°50.983 -999 36 10.2 101750 72
2005-10-18 07:54:32 51°25.606 2°51.005 -999 40 10.2 101750 71
2005-10-18 07:54:37 51°25.611 2°51.027 -999 33 10.2 101750 71
2005-10-18 07:54:42 51°25.616 2°51.049 -999 38 10.3 101770 71
2005-10-18 07:54:47 51°25.62 2°51.07 -999 39 10.3 101770 71
2005-10-18 07:54:51 51°25.624 2°51.088 -999 44 10.2 101750 68
2005-10-18 07:54:57 51°25.63 2°51.114 -999 48 10.2 101750 68
2005-10-18 07:55:02 51°25.634 2°51.135 -999 44 10.2 101750 68
2005-10-18 07:55:07 51°25.639 2°51.156 -999 41 10.2 101750 68
2005-10-18 07:55:11 51°25.643 2°51.173 -999 40 10.2 101750 67
2005-10-18 07:55:17 51°25.649 2°51.2 -999 39 10.2 101750 67
2005-10-18 07:55:22 51°25.654 2°51.221 -999 35 10.2 101750 67
2005-10-18 07:55:27 51°25.658 2°51.242 -999 44 10.2 101750 67